DELTA 1 DEB, 21448

Orbit data source: Space-Track

DELTA 1 DEB, 21448 is space debris in SSO originally from a launch on Thu, 12 Jun 1975 UTC launched from the Air Force Western Test Range (AFWTR). Debris objects in space refer to the collection of defunct objects orbiting the Earth. Examples of debris include non-operational satellites, rocket bodies, and fragments generated from explosions, collisions, or faulty payload assembly.

Loading next visibility...
Identifier
21448, 1975-052EG
Orbit
SSO
Country
Flag of USUS
Related business
Manufacturer
Unknown
Mission
Spacecraft
Bus & Motor
Unknown
Mass
Unknown
Launch date (UTC)
1975-06-12 (51 years ago)
Launch vehicle
Unknown
Launch site
Air Force Western Test Range (AFWTR)
Object type
Payload
Rocket body
Debris
Shape & HBR
Unknown shape, 0.2 m
Radar Cross Section
Medium (>0.1 m² and <1 m²)

Expand to show TLE details & history
Last TLE update: 8 hours ago

TLE from 8 hours ago
0 DELTA 1 DEB
1 21448U 75052EG  26127.10646764  .00000022  00000-0  15309-3 0  9995
2 21448  99.6590 183.6262 0128864 264.1954 123.5264 13.18246386684123
Epoch: 2026-05-07T02:33Z
TLE epoch observation values (Epoch: 2026-05-07T02:33:18.804Z)
Latitude
28.53676°
Longitude
-84.94312°
Altitude
1,249.556 km
Speed
7.207 km/s
True Right ascension
11h 53m 22s
True Declination
28° 24' 07"
Sunlit
Object was in daylight at epoch
Visualization orbit readout
Latitude
Unknown
Longitude
Unknown
Altitude
Unknown
Speed
Unknown
Apparent Right ascension
Unknown
Apparent Declination
Unknown
Sunlit
N/A
Visualization observer readout
Local Sidereal Time
18:16:30
Azimuth
Unknown
Elevation
Unknown
Doppler factor
Unknown
Orbital elements
Apogee altitude
1,286.277 km
Perigee altitude
1,091.257 km
Semi-major axis
7,566.904 km
Eccentricity
0.01289
Inclination
99.659°
RAAN
183.6262°
Arg. of periapsis
264.1954°
True anomaly
124.74645°
Mean anomaly
123.5264°
Eccentric anomaly
124.13752°
Mean motion
3.29736 °/min
Orbital period
109.18 mins
BSTAR
0.00015309
Loading maneuver chart data...
Computing Atmospheric mass density...
Loading historical data...
Loading historical data...
Loading historical data...
Loading historical data...
Loading historical data...
Loading historical data...
Loading historical data...

Documentation

Showing up to 5 results
|